Mojave, CA

2:25 AM PST on December 14, 2019 (GMT -0800)
Mojave

Weather History for KMHV - October, 2019

Change the Weather History Date:

Thursday, October 10, 2019

  Actual Average Record
Temperature  
Mean Temperature 58 °F -  
Max Temperature 68 °F 81 °F 94 °F (1965)
Min Temperature 48 °F 51 °F 37 °F (1973)
Degree Days  
Heating Degree Days 7    
Growing Degree Days 8 (Base 50)    
Moisture  
Dew Point 4 °F    
Average Humidity 15    
Maximum Humidity 40    
Minimum Humidity 5    
Precipitation  
Precipitation 0.00 in - - ()
Sea Level Pressure  
Sea Level Pressure 30.06 in    
Wind  
Wind Speed 10 mph (NE)    
Max Wind Speed 24 mph    
Max Gust Speed 32 mph    
Visibility 10 miles    
Events      
Averages and records for this station are not official NWS values.
T = Trace of Precipitation, MM = Missing Value Source: NWS Daily Summary

Daily Weather History Graph

Daily Weather History Graph

Search for Another Location

Airport or City:

Astronomy

Oct. 10, 2019 Rise Set
Actual Time 6:54 AM PDT 6:24 PM PDT
Civil Twilight 6:28 AM PDT 6:49 PM PDT
Nautical Twilight 5:59 AM PDT 7:18 PM PDT
Astronomical Twilight 5:30 AM PDT 7:48 PM PDT
Moon 5:18 PM PDT (10/10) 3:53 AM PDT (10/10)
Length of Visible Light 12h 20m
Length of Day
11h 29m
Waxing Gibbous, 91% of the Moon is Illuminated
Oct 10
Waxing Gibbous
Oct 13
Full
Oct 21
Last Quarter
Oct 27
New
Nov 4
First Quarter

Hourly Weather History & Observations

Time (PDT) Temp. Dew Point Humidity Pressure Visibility Wind Dir Wind Speed Gust Speed Precip Events Conditions
12:00 AM 66.2 °F 21.2 °F 18% 29.84 in 10.0 mi Variable 3.5 mph - N/A   Clear
12:20 AM 62.6 °F 23.0 °F 22% 29.85 in 10.0 mi SSW 5.8 mph - N/A   Clear
12:40 AM 62.6 °F 23.0 °F 22% 29.86 in 10.0 mi West 4.6 mph - N/A   Clear
1:00 AM 60.8 °F 24.8 °F 25% 29.87 in 10.0 mi West 9.2 mph - N/A   Clear
1:20 AM 59.0 °F 24.8 °F 27% 29.88 in 10.0 mi WNW 11.5 mph - N/A   Clear
1:40 AM 57.2 °F 26.6 °F 31% 29.89 in 10.0 mi South 5.8 mph - N/A   Scattered Clouds
2:00 AM 59.0 °F 26.6 °F 29% 29.91 in 10.0 mi NW 4.6 mph - N/A   Overcast
2:20 AM 55.4 °F 24.8 °F 31% 29.92 in 10.0 mi Variable 3.5 mph - N/A   Overcast
2:40 AM 55.4 °F 26.6 °F 33% 29.92 in 10.0 mi Calm Calm - N/A   Overcast
3:00 AM 53.6 °F 24.8 °F 33% 29.93 in 10.0 mi NNE 5.8 mph - N/A   Overcast
3:20 AM 53.6 °F 26.6 °F 35% 29.93 in 10.0 mi NNE 5.8 mph - N/A   Overcast
3:40 AM 51.8 °F 26.6 °F 38% 29.94 in 10.0 mi NNW 6.9 mph - N/A   Overcast
4:00 AM 50.0 °F 24.8 °F 37% 29.95 in 10.0 mi Calm Calm - N/A   Overcast
4:20 AM 48.2 °F 24.8 °F 40% 29.96 in 10.0 mi Calm Calm - N/A   Mostly Cloudy
4:40 AM 51.8 °F 26.6 °F 38% 29.96 in 10.0 mi NE 6.9 mph - N/A   Mostly Cloudy
5:00 AM 51.8 °F 24.8 °F 35% 29.97 in 10.0 mi NE 6.9 mph - N/A   Overcast
5:20 AM 51.8 °F 19.4 °F 28% 29.98 in 10.0 mi NE 8.1 mph - N/A   Mostly Cloudy
5:40 AM 51.8 °F 19.4 °F 28% 29.99 in 10.0 mi NE 9.2 mph - N/A   Mostly Cloudy
6:00 AM 51.8 °F 17.6 °F 26% 30.00 in 10.0 mi NE 12.7 mph - N/A   Overcast
6:20 AM 50.0 °F 15.8 °F 26% 30.01 in 9.0 mi NE 5.8 mph - N/A   Overcast
6:40 AM 50.0 °F 15.8 °F 26% 30.03 in 10.0 mi NE 9.2 mph - N/A   Mostly Cloudy
7:20 AM 48.2 °F 12.2 °F 24% 30.05 in 8.0 mi NE 6.9 mph - N/A   Clear
7:40 AM 51.8 °F 10.4 °F 19% 30.06 in 8.0 mi NE 11.5 mph - N/A   Clear
8:00 AM 53.6 °F 10.4 °F 18% 30.08 in 9.0 mi NE 12.7 mph - N/A   Clear
8:20 AM 55.4 °F 8.6 °F 15% 30.09 in 9.0 mi NE 16.1 mph 23.0 mph N/A   Clear
8:40 AM 55.4 °F 8.6 °F 15% 30.10 in 9.0 mi ENE 20.7 mph 26.5 mph N/A   Clear
9:00 AM 57.2 °F 6.8 °F 13% 30.11 in 10.0 mi ENE 21.9 mph 31.1 mph N/A   Clear
9:20 AM 57.2 °F 6.8 °F 13% 30.12 in 10.0 mi ENE 24.2 mph - N/A   Clear
9:40 AM 59.0 °F 5.0 °F 12% 30.13 in 10.0 mi ENE 21.9 mph - N/A   Clear
10:00 AM 59.0 °F 5.0 °F 12% 30.13 in 10.0 mi ENE 19.6 mph 26.5 mph N/A   Clear
10:20 AM 59.0 °F 5.0 °F 12% 30.13 in 10.0 mi ENE 16.1 mph 25.3 mph N/A   Clear
10:40 AM 60.8 °F 5.0 °F 11% 30.14 in 10.0 mi NE 23.0 mph 29.9 mph N/A   Clear
11:00 AM 60.8 °F 3.2 °F 10% 30.14 in 10.0 mi ENE 19.6 mph 31.1 mph N/A   Clear
11:20 AM 62.6 °F 3.2 °F 9% 30.14 in 10.0 mi ENE 18.4 mph 26.5 mph N/A   Clear
11:40 AM 62.6 °F 1.4 °F 9% 30.14 in 10.0 mi ENE 19.6 mph 25.3 mph N/A   Clear
12:00 PM 62.6 °F 1.4 °F 9% 30.14 in 10.0 mi ENE 19.6 mph 26.5 mph N/A   Clear
12:20 PM 64.4 °F -2.2 °F 7% 30.13 in 10.0 mi ENE 20.7 mph 27.6 mph N/A   Clear
12:40 PM 64.4 °F -2.2 °F 7% 30.12 in 10.0 mi East 19.6 mph 26.5 mph N/A   Clear
1:00 PM 64.4 °F -4.0 °F 6% 30.11 in 9.0 mi ENE 23.0 mph 28.8 mph N/A   Clear
1:20 PM 66.2 °F -4.0 °F 6% 30.10 in 10.0 mi East 19.6 mph 29.9 mph N/A   Clear
1:40 PM 66.2 °F -5.8 °F 5% 30.09 in 10.0 mi East 21.9 mph 27.6 mph N/A   Clear
2:00 PM 68.0 °F -7.6 °F 5% 30.09 in 10.0 mi NE 21.9 mph 32.2 mph N/A   Clear
2:20 PM 68.0 °F -7.6 °F 5% 30.08 in 10.0 mi ENE 24.2 mph - N/A   Clear
2:40 PM 68.0 °F -5.8 °F 5% 30.08 in 10.0 mi ENE 16.1 mph 29.9 mph N/A   Clear
3:00 PM 68.0 °F -7.6 °F 5% 30.08 in 10.0 mi ENE 17.3 mph 27.6 mph N/A   Clear
3:20 PM 68.0 °F -7.6 °F 5% 30.07 in 10.0 mi ENE 21.9 mph 32.2 mph N/A   Clear
3:40 PM 68.0 °F -7.6 °F 5% 30.07 in 10.0 mi East 18.4 mph 24.2 mph N/A   Clear
4:00 PM 68.0 °F -7.6 °F 5% 30.07 in 10.0 mi East 19.6 mph - N/A   Clear
4:20 PM 68.0 °F -7.6 °F 5% 30.07 in 10.0 mi ENE 16.1 mph 23.0 mph N/A   Clear
4:40 PM 66.2 °F -9.4 °F 5% 30.07 in 10.0 mi East 18.4 mph 24.2 mph N/A   Clear
5:00 PM 66.2 °F -9.4 °F 5% 30.07 in 10.0 mi East 20.7 mph - N/A   Clear
5:20 PM 66.2 °F -9.4 °F 5% 30.08 in 10.0 mi East 18.4 mph 24.2 mph N/A   Clear
5:40 PM 64.4 °F -9.4 °F 5% 30.08 in 10.0 mi East 20.7 mph - N/A   Clear
6:00 PM 62.6 °F -9.4 °F 5% 30.08 in 10.0 mi East 17.3 mph 23.0 mph N/A   Clear
6:20 PM 62.6 °F -7.6 °F 6% 30.09 in 10.0 mi East 13.8 mph - N/A   Clear
6:40 PM 60.8 °F -7.6 °F 6% 30.09 in 10.0 mi East 10.4 mph - N/A   Clear
7:00 PM 59.0 °F -9.4 °F 6% 30.10 in 10.0 mi ENE 9.2 mph - N/A   Clear
7:20 PM 57.2 °F -9.4 °F 6% 30.11 in 10.0 mi East 5.8 mph - N/A   Clear
7:40 PM 53.6 °F -9.4 °F 7% 30.11 in 10.0 mi North 6.9 mph - N/A   Clear
8:00 PM 53.6 °F -9.4 °F 7% 30.12 in 10.0 mi NNE 9.2 mph - N/A   Partly Cloudy
8:20 PM 51.8 °F -9.4 °F 8% 30.12 in 10.0 mi NNE 9.2 mph - N/A   Partly Cloudy
8:40 PM 51.8 °F -9.4 °F 8% 30.13 in 10.0 mi North 9.2 mph - N/A   Partly Cloudy
9:00 PM 51.8 °F -9.4 °F 8% 30.13 in 10.0 mi NNE 9.2 mph - N/A   Clear
9:20 PM 51.8 °F -9.4 °F 8% 30.14 in 10.0 mi North 10.4 mph - N/A   Clear
9:40 PM 50.0 °F -9.4 °F 8% 30.15 in 10.0 mi NNE 10.4 mph - N/A   Partly Cloudy
10:00 PM 51.8 °F -9.4 °F 8% 30.15 in 10.0 mi North 9.2 mph - N/A   Scattered Clouds
10:20 PM 50.0 °F -9.4 °F 8% 30.15 in 10.0 mi North 8.1 mph - N/A   Mostly Cloudy
10:40 PM 50.0 °F -9.4 °F 8% 30.15 in 10.0 mi North 10.4 mph - N/A   Scattered Clouds
11:00 PM 50.0 °F -9.4 °F 8% 30.16 in 10.0 mi North 6.9 mph - N/A   Partly Cloudy
11:20 PM 48.2 °F -9.4 °F 9% 30.16 in 10.0 mi NNE 8.1 mph - N/A   Partly Cloudy
11:40 PM 48.2 °F -9.4 °F 9% 30.16 in 10.0 mi NNE 9.2 mph - N/A   Partly Cloudy